Location: Newark
(21.1700°N, 79.6500°E)
Time: 20:50:52
(UTC+00:00)

N. Korean satellite - Pass Details

Date: 18 December 2019
Orbit: 454 x 507 km, 97.2° (Epoch: 23 January)

Event Time Altitude Azimuth Distance (km) Brightness Sun altitude
Rises 00:06:45 0° 17° (NNE) 2,476 10.1 -15.0°
Reaches altitude 10° 00:08:50 10° 22° (NNE) 1,595 9.2 -14.5°
Maximum altitude 00:12:10 53° 100° (E) 566 7.3 -13.8°
Drops below altitude 10° 00:15:29 10° 178° (S) 1,581 9.5 -13.1°
Sets 00:17:32 0° 183° (S) 2,451 10.4 -12.6°
